Tracking 29493 objects as of 8-Sep-2024
HD Live streaming from Space Station
objects crossing your sky now

FALCON 9 R/B

Track FALCON 9 R/B now!
10-day predictions


NORAD ID: 44869
Int'l Code: 2019-091B
Perigee: 314.2 km
Apogee: 19,187.0 km
Inclination: 27.1 °
Period: 339.5 minutes
Semi major axis: 16121 km
RCS: Unknown
Launch date: December 17, 2019
Source: United States (US)
Launch site: AIR FORCE EASTERN TEST RANGE (AFETR)

Note: This is a ROCKET BODY
Your satellite tracking list
Your tracking list is empty




NASA's NSSDC Master Catalog

Two Line Element Set (TLE):
1 44869U 19091B   24251.39118574  .00006692  00000-0  18900-2 0  9996
2 44869  27.0634  13.8938 5853264 263.4043  30.8663  4.24121521 71312
Source of the keplerian elements: AFSPC